Wind_Speed
8 6 5 5 4 4 4 5 4 4 3 3 2 2 2 2 2 2 2 2 2 2 2 2 3 3 3 3 3 4 4 4 4 4 4 4 4 4 4 4 4 4 5
8 7 5 5 5 4 4 5 5 4 4 3 3 2 2 2 2 2 2 2 2 2 2 3 3 3 3 4 4 5 5 4 4 5 5 5 5 5 5 5 5 5 6
9 8 6 6 5 5 4 4 4 4 4 3 3 3 3 2 2 2 2 2 2 2 2 3 3 3 3 4 5 5 5 5 5 5 6 6 6 6 5 6 6 6 6
10 9 7 6 6 5 5 5 4 4 4 4 4 3 3 3 3 3 3 3 3 3 3 3 3 4 4 4 5 5 5 5 5 6 6 6 7 6 6 7 7 8 8
12 10 9 8 6 6 5 5 5 5 5 5 4 4 4 3 4 3 3 3 3 4 4 4 4 4 4 5 5 5 5 5 6 7 6 6 6 6 7 8 8 8 9
13 12 10 9 8 7 6 6 5 5 6 6 5 5 5 5 5 5 4 4 4 5 5 5 5 5 5 5 6 6 6 7 7 7 7 7 7 7 8 9 9 10 11
13 12 11 10 9 8 7 7 6 6 6 6 6 6 6 6 7 7 6 6 6 6 7 7 7 7 7 7 7 7 7 8 8 7 8 8 8 9 9 10 11 11 12
14 13 12 11 10 9 8 8 8 8 7 7 7 7 8 8 8 8 8 8 8 8 8 8 8 8 8 8 9 9 9 9 9 9 9 10 10 11 11 12 12 13 14
14 15 13 12 11 11 10 9 9 9 9 9 9 9 9 9 9 10 10 10 9 9 9 9 9 9 10 10 10 10 11 11 11 11 11 12 12 12 13 14 15 16 16
15 15 14 13 12 12 11 11 11 11 11 11 10 11 11 11 11 11 12 11 11 11 11 11 11 12 12 12 12 12 12 12 13 14 14 14 15 15 16 17 18 18 19
15 15 15 14 13 13 12 12 12 12 13 12 12 12 12 13 13 14 14 13 13 13 13 13 13 13 14 14 14 14 14 15 16 16 16 17 18 18 19 20 20 21 21
15 15 15 15 15 14 14 13 13 13 14 14 14 14 14 14 15 16 16 15 15 16 15 15 15 16 16 16 16 16 17 17 18 18 19 19 20 20 21 23 23 24 23
16 16 16 15 15 15 15 14 14 14 15 15 15 15 15 16 16 17 17 17 18 18 18 19 19 19 18 18 18 19 19 19 20 20 21 22 23 23 24 25 25 26 26
15 16 16 15 15 15 15 15 15 16 16 16 16 16 17 17 18 19 19 19 19 20 21 21 21 21 21 21 21 21 21 22 23 24 24 25 26 26 27 27 27 28 29
14 14 14 14 15 15 16 16 16 16 17 17 18 18 18 19 19 20 20 21 21 22 22 22 22 23 23 23 23 24 25 25 26 26 27 27 28 29 29 30 31 32 32
13 14 13 13 14 15 15 16 16 17 18 18 19 20 20 21 21 21 22 22 22 23 24 24 24 25 25 26 26 27 27 27 27 28 29 30 30 31 31 32 32 34 35
12 14 13 13 14 14 15 16 17 17 18 19 19 20 21 22 22 22 23 23 24 24 25 26 26 27 27 27 27 28 29 30 30 30 31 31 32 33 34 34 35 36 37
12 13 13 14 14 15 16 17 18 19 19 19 20 20 22 22 23 23 23 24 25 26 26 26 27 28 28 29 30 30 31 30 31 32 33 33 34 34 34 35 36 37 36
12 14 15 15 15 16 16 18 19 19 19 20 21 21 22 22 23 24 25 26 27 27 27 28 29 29 30 31 32 33 33 33 33 34 34 34 35 34 35 36 36 37 37
13 15 16 16 17 17 18 19 20 20 20 21 21 22 23 24 24 25 26 27 28 28 29 30 30 31 31 32 33 33 34 33 34 34 34 34 34 35 36 37 37 38 38
15 16 16 17 18 19 19 20 20 21 22 23 23 24 25 26 27 28 28 29 29 30 31 30 31 32 32 31 32 33 33 33 33 34 34 35 36 36 37 37 38 38 39
16 16 17 18 19 20 21 21 22 22 23 24 24 25 26 28 29 30 30 30 31 31 31 31 31 31 31 31 31 32 33 33 33 34 35 35 36 37 37 38 38 38 39
17 17 18 19 19 20 21 22 23 23 24 24 25 27 27 28 30 30 30 30 30 30 31 31 31 30 30 31 32 32 33 33 34 35 35 35 36 36 37 37 38 39 39
18 19 19 19 20 21 22 22 23 24 24 25 26 27 28 28 28 29 29 29 29 30 30 30 30 30 31 31 32 32 33 34 34 35 35 36 36 36 36 37 38 38 39
20 20 20 21 21 22 23 23 23 24 24 25 26 27 27 28 28 28 28 28 29 30 30 30 30 30 31 31 32 32 33 34 34 34 34 35 36 37 37 38 38 38 38
22 22 22 23 23 23 24 25 25 25 26 26 27 28 28 29 29 29 29 29 29 29 29 29 30 31 31 32 32 32 33 33 34 34 35 35 37 37 38 38 38 38 38
Wind_Direction
192 190 179 176 173 165 163 166 167 168 168 171 177 171 173 185 196 216 215 212 224 241 259 266 274 263 268 274 283 289 289 281 281 283 287 289 294 301 295 290 299 303 306
195 191 187 184 183 177 174 175 178 179 180 184 188 194 191 199 211 221 219 222 236 261 279 274 281 286 281 283 288 288 293 284 285 285 291 293 288 292 292 293 297 300 297
201 195 194 194 194 193 188 187 188 193 194 193 199 206 210 211 213 214 221 228 243 264 274 275 277 283 289 290 294 292 290 284 287 294 293 291 289 292 290 294 296 298 298
207 204 201 200 201 203 201 202 206 204 200 199 204 209 210 217 219 218 223 232 247 266 270 278 278 278 286 293 296 295 296 285 291 298 294 292 293 294 294 295 296 295 295
214 213 209 208 207 205 206 210 215 212 207 208 212 213 213 215 216 220 228 244 257 270 276 280 285 293 290 293 295 297 294 289 293 298 297 297 297 301 296 296 296 296 295
217 217 216 213 212 209 209 214 220 223 220 219 220 224 228 229 231 232 237 249 260 269 276 279 280 286 288 292 293 292 288 288 291 293 291 294 298 299 297 294 297 295 294
219 220 219 217 219 217 216 221 226 227 227 228 232 236 238 243 242 241 247 255 262 267 272 275 273 276 277 283 287 288 289 289 288 287 288 292 295 296 296 296 296 298 295
220 221 221 220 223 226 226 229 232 232 234 237 242 247 246 248 247 249 253 258 264 270 274 276 276 273 274 278 281 284 285 284 283 284 286 288 289 292 294 294 292 295 294
222 221 222 223 226 232 233 236 238 240 241 243 247 252 254 254 252 255 259 263 266 270 273 275 276 277 276 275 278 281 280 279 280 281 284 285 287 289 290 290 291 293 294
224 221 221 225 230 236 240 244 247 247 247 249 252 255 256 256 257 258 261 264 267 270 273 273 274 274 273 275 277 279 279 279 280 281 283 284 284 285 287 288 289 290 292
226 222 226 231 236 242 247 249 250 251 251 253 256 258 259 258 259 259 261 262 265 269 273 274 274 275 275 275 277 277 278 280 281 282 283 284 284 283 285 287 288 288 290
228 227 231 236 241 247 249 249 252 254 254 256 258 259 260 260 262 262 263 265 267 268 270 273 276 276 275 275 278 278 277 278 279 280 281 283 284 286 287 287 288 288 289
231 232 235 240 244 247 248 250 253 256 258 260 260 261 261 262 264 264 265 266 268 269 270 271 273 276 277 277 277 277 276 277 278 279 281 283 284 285 287 287 288 288 288
234 234 237 242 246 249 252 255 255 258 261 262 262 263 264 265 266 266 266 267 269 270 270 272 273 276 277 277 276 276 278 278 279 281 282 284 285 286 288 288 288 289 289
235 235 242 247 252 253 255 256 258 261 262 262 263 265 266 266 267 269 269 269 270 271 271 272 275 276 275 275 275 276 278 279 279 281 283 285 288 288 289 290 289 290 291
237 240 245 249 254 256 259 259 261 262 262 264 265 265 266 267 268 270 270 271 271 272 272 273 274 275 275 274 275 276 278 280 281 283 285 286 287 288 289 290 291 291 291
238 240 247 252 257 264 267 265 265 264 265 266 267 268 268 268 269 270 271 271 273 273 273 274 275 275 274 275 276 277 279 280 281 283 285 286 287 287 288 289 290 291 292
248 248 250 254 260 264 268 266 266 266 266 266 267 269 270 270 270 271 273 273 274 276 276 275 275 276 275 276 277 279 280 281 282 284 284 285 286 288 289 290 291 292 292
254 255 256 256 260 264 268 269 268 268 269 269 270 271 271 272 272 273 274 275 276 278 279 278 276 276 276 276 278 280 281 281 282 283 284 286 287 288 290 291 292 293 293
259 260 261 260 264 266 269 271 270 270 271 272 273 273 273 275 276 277 277 278 278 279 279 279 278 277 277 278 278 280 280 280 282 284 288 289 290 290 291 293 293 294 294
264 263 265 265 268 270 272 273 273 273 272 273 273 275 275 276 278 278 279 280 279 278 279 279 279 278 278 278 278 279 281 284 286 288 289 290 291 292 293 294 294 294 295
272 269 268 269 271 273 274 275 275 276 274 273 275 277 279 279 278 278 279 279 280 280 280 280 280 280 280 280 280 281 283 285 287 287 289 291 292 293 293 294 294 294 295
276 274 273 272 272 273 275 275 275 277 275 276 278 280 281 282 282 281 280 279 279 280 281 280 281 282 282 281 281 282 282 284 287 288 289 291 293 294 294 294 294 296 298
276 276 276 276 275 276 277 277 277 276 278 278 279 280 281 284 284 284 284 283 283 283 283 283 283 283 282 283 282 282 284 286 289 290 291 292 294 295 296 296 297 298 299
276 277 277 279 279 279 279 278 278 278 279 280 281 281 282 283 285 285 284 285 285 284 283 283 284 284 284 284 285 284 285 288 290 291 292 294 295 296 296 298 298 299 300
276 276 278 280 280 280 280 280 280 280 279 280 281 281 281 283 283 284 285 284 284 284 283 283 283 284 284 284 285 286 288 290 291 292 293 294 295 296 297 298 298 299 300
Height
5913 5913 5914 5915 5915 5916 5916 5917 5917 5917 5918 5918 5919 5919 5919 5919 5920 5920 5920 5920 5921 5921 5921 5921 5921 5921 5921 5921 5921 5921 5921 5921 5921 5921 5920 5920 5920 5920 5919 5919 5919 5918 5918
5912 5913 5914 5915 5915 5916 5916 5916 5917 5917 5918 5918 5918 5919 5919 5919 5919 5920 5920 5920 5920 5920 5920 5920 5920 5920 5920 5920 5920 5920 5920 5920 5920 5920 5919 5919 5919 5918 5918 5918 5917 5917 5917
5912 5912 5913 5914 5915 5915 5916 5916 5917 5917 5918 5918 5918 5919 5919 5919 5919 5920 5920 5920 5920 5920 5920 5920 5920 5920 5920 5920 5919 5919 5919 5919 5919 5919 5918 5918 5918 5917 5917 5917 5916 5916 5915
5911 5912 5913 5914 5914 5915 5915 5916 5916 5917 5917 5918 5918 5918 5918 5919 5919 5919 5919 5919 5920 5920 5919 5919 5919 5919 5919 5919 5919 5918 5918 5918 5918 5918 5917 5917 5916 5916 5916 5915 5915 5914 5913
5909 5911 5912 5913 5914 5914 5915 5915 5916 5916 5917 5917 5918 5918 5918 5918 5918 5919 5919 5919 5919 5919 5919 5919 5918 5918 5918 5918 5918 5917 5917 5917 5917 5916 5916 5915 5915 5915 5914 5914 5913 5912 5912
5908 5909 5911 5912 5913 5914 5914 5915 5915 5916 5916 5917 5917 5917 5917 5917 5918 5918 5918 5918 5918 5918 5918 5918 5918 5917 5917 5917 5917 5916 5916 5915 5915 5915 5914 5914 5914 5913 5912 5912 5911 5910 5910
5906 5908 5909 5911 5912 5913 5913 5914 5914 5915 5915 5916 5916 5917 5917 5917 5917 5917 5917 5917 5917 5917 5917 5917 5916 5916 5916 5916 5916 5915 5915 5914 5914 5913 5913 5912 5911 5911 5910 5910 5909 5908 5907
5904 5906 5908 5909 5910 5911 5912 5913 5913 5913 5914 5914 5915 5915 5916 5917 5916 5916 5916 5916 5916 5916 5916 5915 5915 5915 5915 5914 5914 5914 5913 5912 5912 5911 5911 5910 5909 5908 5908 5907 5906 5905 5904
5902 5903 5905 5907 5909 5910 5910 5911 5912 5912 5913 5913 5914 5914 5915 5915 5915 5915 5915 5915 5915 5915 5914 5914 5913 5913 5913 5912 5912 5911 5911 5910 5910 5909 5908 5907 5906 5906 5905 5904 5903 5902 5901
5899 5901 5903 5905 5907 5908 5909 5909 5910 5910 5911 5911 5912 5912 5913 5913 5913 5913 5913 5913 5913 5912 5912 5912 5911 5911 5910 5910 5909 5909 5908 5908 5907 5906 5905 5904 5903 5902 5901 5900 5899 5898 5896
5897 5898 5900 5903 5904 5905 5906 5907 5907 5908 5908 5909 5909 5910 5910 5910 5910 5911 5911 5911 5910 5910 5910 5909 5909 5908 5908 5907 5907 5906 5905 5904 5904 5902 5901 5900 5899 5898 5897 5896 5894 5893 5892
5894 5896 5898 5900 5901 5903 5904 5904 5905 5905 5906 5906 5906 5907 5907 5907 5907 5907 5907 5907 5907 5907 5907 5906 5906 5905 5904 5904 5903 5902 5902 5901 5900 5898 5897 5896 5895 5894 5892 5891 5889 5888 5886
5892 5893 5895 5897 5898 5899 5901 5901 5902 5902 5903 5903 5903 5904 5904 5904 5904 5904 5904 5904 5904 5903 5903 5903 5902 5901 5900 5900 5899 5898 5897 5896 5895 5894 5893 5891 5890 5888 5887 5885 5884 5882 5881
5889 5891 5892 5894 5895 5896 5897 5898 5898 5899 5899 5899 5900 5900 5900 5900 5900 5900 5900 5900 5899 5899 5899 5898 5897 5897 5896 5895 5895 5894 5893 5891 5890 5889 5888 5886 5884 5883 5881 5879 5878 5876 5874
5886 5888 5889 5891 5892 5893 5894 5895 5895 5895 5896 5896 5896 5896 5896 5896 5896 5896 5896 5895 5895 5894 5894 5893 5893 5892 5891 5890 5889 5888 5887 5886 5885 5883 5882 5880 5878 5877 5875 5873 5871 5869 5867
5884 5886 5887 5888 5889 5890 5890 5891 5891 5891 5892 5892 5892 5892 5892 5892 5892 5891 5891 5890 5890 5889 5888 5888 5887 5886 5885 5884 5883 5882 5881 5880 5878 5877 5875 5873 5871 5870 5868 5865 5863 5861 5859
5881 5883 5884 5885 5886 5886 5886 5887 5887 5887 5887 5887 5887 5887 5887 5887 5886 5886 5886 5885 5885 5884 5883 5882 5881 5880 5879 5878 5877 5875 5874 5873 5871 5870 5868 5866 5864 5862 5860 5858 5855 5853 5850
5879 5880 5881 5882 5882 5883 5883 5883 5883 5883 5883 5883 5882 5882 5882 5881 5881 5881 5880 5880 5879 5878 5877 5876 5875 5873 5872 5871 5870 5869 5867 5866 5864 5862 5860 5858 5856 5854 5851 5849 5846 5844 5841
5876 5877 5878 5878 5878 5879 5879 5878 5878 5878 5878 5877 5877 5877 5876 5876 5875 5875 5874 5873 5872 5871 5870 5869 5868 5866 5865 5864 5863 5861 5860 5858 5856 5854 5852 5850 5848 5845 5843 5840 5837 5834 5832
5873 5873 5874 5874 5874 5874 5874 5873 5873 5873 5872 5872 5872 5871 5870 5870 5869 5868 5867 5867 5866 5864 5863 5862 5861 5859 5858 5857 5855 5854 5852 5850 5848 5846 5844 5842 5839 5836 5834 5831 5828 5825 5822
5870 5870 5869 5869 5869 5869 5869 5868 5868 5867 5867 5866 5866 5865 5864 5864 5863 5862 5861 5860 5858 5857 5856 5854 5853 5852 5850 5849 5847 5846 5844 5842 5840 5838 5836 5833 5831 5828 5825 5822 5819 5816 5812
5866 5865 5865 5865 5864 5864 5864 5863 5863 5862 5861 5861 5860 5859 5858 5857 5856 5855 5854 5852 5851 5850 5848 5847 5845 5844 5842 5841 5839 5838 5836 5834 5832 5830 5827 5825 5822 5819 5816 5813 5809 5806 5802
5862 5861 5860 5860 5859 5859 5858 5857 5857 5856 5855 5855 5854 5852 5851 5850 5849 5847 5846 5845 5843 5842 5841 5839 5838 5836 5835 5833 5831 5830 5828 5826 5824 5821 5818 5815 5812 5809 5806 5803 5799 5796 5792
5857 5856 5855 5855 5854 5853 5852 5852 5851 5850 5849 5848 5847 5846 5845 5843 5841 5840 5839 5837 5836 5835 5833 5832 5830 5829 5827 5825 5823 5821 5819 5817 5815 5812 5809 5806 5803 5800 5796 5793 5789 5785 5782
5852 5851 5850 5849 5848 5847 5847 5846 5845 5844 5843 5841 5840 5839 5837 5835 5834 5833 5831 5830 5829 5827 5826 5824 5822 5820 5819 5817 5815 5813 5811 5808 5806 5803 5800 5797 5793 5790 5786 5783 5779 5775 5771
5846 5845 5845 5844 5843 5841 5840 5839 5838 5837 5836 5834 5833 5831 5829 5828 5827 5825 5824 5822 5821 5819 5818 5816 5814 5812 5810 5808 5806 5804 5802 5799 5797 5794 5790 5787 5784 5780 5777 5773 5769 5765 5761